CW8212 Weather Reports


time (UTC)temp
C
wind
direction
speed
KPH
gust
KPH
rain 1hr
cm
rain 24hr
cm
rain mn
cm
humidity
%
barometer
mb
20260510141547 18 240 0.0 4.8 0.00 0.08 0.00 89 1013.8
20260510140043 17 191 0.0 3.2 0.00 0.08 0.00 94 1013.9
20260510134544 16 165 0.0 4.8 0.00 0.08 0.00 95 1013.7
20260510133038 16 298 0.0 1.6 0.00 0.08 0.00 96 1013.8
20260510131533 15 165 0.0 3.2 0.00 0.08 0.00 96 1013.7
20260510130028 14 9 0.0 0.0 0.00 0.08 0.00 96 1013.9
20260510124525 13 171 0.0 0.0 0.00 0.08 0.00 96 1013.9
20260510123018 12 171 0.0 0.0 0.00 0.08 0.00 96 1013.7
20260510121514 11 171 0.0 0.0 0.00 0.08 0.00 95 1013.4
20260510120013 11 171 0.0 0.0 0.00 0.08 0.00 95 1013.3
20260510114510 11 153 0.0 1.6 0.00 0.08 0.00 95 1013.0
20260510113012 11 211 0.0 0.0 0.00 0.08 0.00 95 1013.2
20260510111506 10 131 0.0 1.6 0.00 0.08 0.00 95 1012.9
20260510110005 10 110 0.0 1.6 0.00 0.08 0.00 95 1013.1
20260510104501 10 250 0.0 0.0 0.00 0.08 0.00 94 1012.8
20260510103102 10 90 0.0 1.6 0.00 0.08 0.00 94 1012.5
20260510101556 10 263 0.0 0.0 0.00 0.08 0.00 94 1012.3
20260510100056 10 347 0.0 1.6 0.00 0.08 0.00 94 1012.2
20260510094555 10 311 0.0 0.0 0.00 0.08 0.00 94 1012.2
20260510093105 10 311 0.0 0.0 0.00 0.08 0.00 94 1012.0
20260510091556 10 311 0.0 1.6 0.00 0.08 0.00 94 1012.1
20260510090053 10 277 0.0 1.6 0.00 0.08 0.00 94 1012.1
20260510084554 10 261 0.0 6.4 0.00 0.08 0.00 94 1012.3
20260510083052 10 183 0.0 8.0 0.00 0.08 0.00 93 1012.1
20260510081614 10 303 0.0 1.6 0.00 0.08 0.00 93 1011.9
20260510080047 9 274 0.0 0.0 0.00 0.08 0.00 93 1011.5
20260510074546 9 274 0.0 0.0 0.00 0.08 0.00 93 1011.5
20260510073055 9 274 0.0 0.0 0.00 0.08 0.00 92 1011.4
20260510071544 9 274 0.0 1.6 0.00 0.08 0.00 92 1011.4
20260510070043 9 274 0.0 1.6 0.00 0.08 0.00 92 1011.2
20260510064553 9 274 0.0 0.0 0.00 0.08 0.00 91 1010.9
20260510063044 9 274 0.0 0.0 0.00 0.08 0.00 91 1010.8
20260510061545 9 274 0.0 0.0 0.00 0.08 0.00 91 1010.9
20260510060046 10 274 0.0 0.0 0.00 0.08 0.00 91 1011.0
20260510054538 10 274 0.0 0.0 0.00 0.08 0.00 91 1011.1
20260510053042 10 274 0.0 0.0 0.00 0.08 0.00 91 1011.3
20260510051536 10 274 0.0 0.0 0.00 0.08 0.00 91 1011.3
20260510050037 10 274 0.0 0.0 0.00 0.08 0.00 91 1011.3
20260510044544 10 274 0.0 0.0 0.00 0.08 0.00 91 1011.4
20260510043032 10 274 0.0 0.0 0.00 0.08 0.00 91 1011.5
20260510041527 10 274 0.0 0.0 0.00 0.08 0.00 91 1011.6
20260510040037 10 274 0.0 0.0 0.00 0.08 0.00 91 1011.7
20260510034523 10 274 0.0 1.6 0.00 0.08 0.08 90 1011.7
20260510033032 11 274 0.0 0.0 0.00 0.08 0.08 91 1011.4
20260510031521 11 274 0.0 0.0 0.00 0.08 0.08 90 1011.4
20260510030019 11 274 0.0 0.0 0.00 0.08 0.08 90 1011.1
20260510024519 11 274 0.0 0.0 0.00 0.08 0.08 90 1011.1
20260510023017 11 274 0.0 0.0 0.00 0.08 0.08 90 1011.1
20260510021516 11 274 0.0 0.0 0.00 0.08 0.08 90 1011.2
20260510020020 11 274 0.0 0.0 0.00 0.08 0.08 90 1011.0
20260510014514 11 274 0.0 0.0 0.00 0.08 0.08 90 1011.0
20260510013012 12 274 0.0 0.0 0.00 0.08 0.08 90 1011.0
20260510011516 12 274 0.0 0.0 0.00 0.08 0.08 90 1010.8
20260510010011 12 274 0.0 0.0 0.00 0.08 0.08 90 1010.8
20260510004511 12 274 0.0 0.0 0.00 0.08 0.08 90 1010.6
20260510003010 12 274 0.0 1.6 0.00 0.08 0.08 90 1010.5
20260510001509 13 273 0.0 0.0 0.00 0.08 0.08 90 1010.5
20260510000015 13 274 0.0 0.0 0.00 0.08 0.08 90 1010.4
20260509234512 13 186 0.0 0.0 0.00 0.08 0.08 90 1010.4
20260509233010 13 195 0.0 0.0 0.00 0.08 0.08 91 1010.4
20260509231507 13 315 0.0 0.0 0.00 0.08 0.08 91 1010.4
20260509230016 13 22 0.0 1.6 0.00 0.08 0.08 91 1010.2
20260509224506 13 113 0.0 1.6 0.00 0.08 0.08 91 1010.4
20260509223009 13 158 0.0 1.6 0.00 0.08 0.08 91 1010.5
20260509221506 13 119 0.0 0.0 0.00 0.08 0.08 90 1010.4
20260509220006 13 105 0.0 3.2 0.00 0.08 0.08 90 1010.5
20260509214504 13 321 0.0 0.0 0.00 0.08 0.08 90 1010.4
20260509213004 13 321 0.0 0.0 0.03 0.08 0.08 90 1010.6
20260509211504 13 321 0.0 0.0 0.03 0.08 0.08 90 1010.7
20260509210008 13 298 0.0 1.6 0.03 0.08 0.08 89 1010.6
20260509204502 13 11 0.0 4.8 0.05 0.08 0.08 89 1010.7
20260509203002 13 284 0.0 3.2 0.03 0.05 0.05 89 1010.5
20260509201606 13 278 0.0 4.8 0.03 0.05 0.05 89 1010.4
20260509200111 13 312 0.0 1.6 0.03 0.05 0.05 88 1010.5
20260509194558 13 273 0.0 3.2 0.00 0.03 0.03 88 1010.7
20260509193113 13 292 0.0 4.8 0.03 0.03 0.03 87 1011.0
20260509191554 13 263 0.0 6.4 0.03 0.03 0.03 87 1011.2
20260509190052 13 287 0.0 9.7 0.03 0.03 0.03 86 1011.5
20260509184605 13 302 0.0 4.8 0.03 0.03 0.03 84 1011.5
20260509183051 13 313 0.0 4.8 0.00 0.00 0.00 82 1011.4
20260509181549 14 317 1.6 8.0 0.00 0.00 0.00 80 1011.8
20260509180049 14 294 3.2 9.7 0.00 0.00 0.00 78 1011.9
20260509174549 15 285 6.4 16.1 0.00 0.00 0.00 77 1011.9
20260509173101 15 325 1.6 6.4 0.00 0.00 0.00 77 1011.7
20260509171603 15 278 0.0 3.2 0.00 0.00 0.00 79 1011.6
20260509170046 15 123 0.0 6.4 0.00 0.00 0.00 81 1011.7
20260509164545 15 335 0.0 6.4 0.00 0.00 0.00 80 1011.7
20260509163046 15 339 0.0 9.7 0.00 0.00 0.00 79 1011.7
20260509161548 16 350 1.6 6.4 0.00 0.00 0.00 78 1011.8
20260509160043 16 355 1.6 9.7 0.00 0.00 0.00 76 1012.3
20260509154548 16 333 0.0 3.2 0.00 0.00 0.00 75 1012.4
20260509153042 16 161 0.0 4.8 0.00 0.00 0.00 75 1012.4
20260509151541 16 168 0.0 6.4 0.00 0.00 0.00 75 1012.5
20260509150050 16 250 0.0 4.8 0.00 0.00 0.00 74 1012.4
20260509144615 15 235 1.6 8.0 0.00 0.00 0.00 74 1012.3
20260509143044 15 237 1.6 11.3 0.00 0.00 0.00 75 1012.2